Time,TemperatureF,DewpointF,PressureIn,WindDirection,WindDirectionDegrees,WindSpeedMPH,WindSpeedGustMPH,Humidity,HourlyPrecipIn,Conditions,Clouds,dailyrainin,SolarRadiationWatts/m^2,SoftwareType,DateUTC
2013-05-02 00:01:00,60.3,42.6,30.41,SSW,193,0.0,2.0,52,0.00,,,0.00,0.0,meteohub,2013-05-02 04:01:00,
2013-05-02 00:02:00,60.1,42.4,30.41,SSW,193,0.0,2.0,52,0.00,,,0.00,0.0,meteohub,2013-05-02 04:02:00,
2013-05-02 00:03:00,60.1,42.4,30.41,SSW,193,0.0,2.0,52,0.00,,,0.00,0.0,meteohub,2013-05-02 04:03:00,
2013-05-02 00:04:00,60.1,42.4,30.41,SSW,194,0.0,2.0,52,0.00,,,0.00,0.0,meteohub,2013-05-02 04:04:00,
2013-05-02 00:05:00,59.9,42.3,30.41,SSW,194,0.0,2.0,52,0.00,,,0.00,0.0,meteohub,2013-05-02 04:05:00,
2013-05-02 00:10:00,59.5,42.4,30.41,ESE,107,0.0,10.0,53,0.00,,,0.00,0.0,meteohub,2013-05-02 04:10:00,
2013-05-02 00:15:00,59.4,42.3,30.41,SW,228,1.0,10.0,53,0.00,,,0.00,0.0,meteohub,2013-05-02 04:15:00,
2013-05-02 00:20:00,59.4,42.8,30.41,SW,221,2.0,10.0,54,0.00,,,0.00,0.0,meteohub,2013-05-02 04:20:00,
2013-05-02 00:26:00,59.2,42.6,30.42,SW,221,0.0,4.0,54,0.00,,,0.00,0.0,meteohub,2013-05-02 04:26:00,
2013-05-02 00:31:00,59.0,42.8,30.41,SSW,193,4.0,4.0,55,0.00,,,0.00,0.0,meteohub,2013-05-02 04:31:00,
2013-05-02 00:36:00,58.8,42.6,30.42,SSW,202,0.0,4.0,55,0.00,,,0.00,0.0,meteohub,2013-05-02 04:36:00,
2013-05-02 00:42:00,58.6,43.0,30.42,SSW,200,0.0,4.0,56,0.00,,,0.00,0.0,meteohub,2013-05-02 04:42:00,
2013-05-02 00:47:00,58.5,42.4,30.42,South,175,0.0,5.0,55,0.00,,,0.00,0.0,meteohub,2013-05-02 04:47:00,
2013-05-02 00:52:00,58.3,42.6,30.42,SSW,211,0.0,5.0,56,0.00,,,0.00,0.0,meteohub,2013-05-02 04:52:00,
2013-05-02 00:57:00,57.9,42.8,30.42,South,188,0.0,5.0,57,0.00,,,0.00,0.0,meteohub,2013-05-02 04:57:00,
2013-05-02 01:02:00,57.7,42.6,30.42,SSW,198,0.0,3.0,57,0.00,,,0.00,0.0,meteohub,2013-05-02 05:02:00,
2013-05-02 01:08:00,57.6,42.4,30.42,South,188,0.0,3.0,57,0.00,,,0.00,0.0,meteohub,2013-05-02 05:08:00,
2013-05-02 01:13:00,57.4,43.2,30.42,SSW,194,0.0,4.0,59,0.00,,,0.00,0.0,meteohub,2013-05-02 05:13:00,
2013-05-02 01:18:00,57.0,42.8,30.42,SSE,167,0.0,5.0,59,0.00,,,0.00,0.0,meteohub,2013-05-02 05:18:00,
2013-05-02 01:23:00,56.7,43.0,30.42,SSE,159,1.0,5.0,60,0.00,,,0.00,0.0,meteohub,2013-05-02 05:23:00,
2013-05-02 01:29:00,56.7,43.0,30.42,SSW,194,0.0,5.0,60,0.00,,,0.00,0.0,meteohub,2013-05-02 05:29:00,
2013-05-02 01:34:00,56.5,42.8,30.41,SSW,200,1.0,6.0,60,0.00,,,0.00,0.0,meteohub,2013-05-02 05:34:00,
2013-05-02 01:39:00,56.3,43.0,30.41,South,184,1.0,6.0,61,0.00,,,0.00,0.0,meteohub,2013-05-02 05:39:00,
2013-05-02 01:45:00,56.1,42.8,30.41,SSW,195,2.0,6.0,61,0.00,,,0.00,0.0,meteohub,2013-05-02 05:45:00,
2013-05-02 01:50:00,55.9,42.6,30.41,SSW,193,0.0,5.0,61,0.00,,,0.00,0.0,meteohub,2013-05-02 05:50:00,
2013-05-02 01:55:00,55.8,43.0,30.41,South,184,0.0,5.0,62,0.00,,,0.00,0.0,meteohub,2013-05-02 05:55:00,
2013-05-02 02:00:00,55.8,43.0,30.41,SSW,200,1.0,5.0,62,0.00,,,0.00,0.0,meteohub,2013-05-02 06:00:00,
2013-05-02 02:06:00,55.6,43.2,30.41,SSE,148,0.0,5.0,63,0.00,,,0.00,0.0,meteohub,2013-05-02 06:06:00,
2013-05-02 02:11:00,55.6,43.2,30.42,SSE,152,0.0,5.0,63,0.00,,,0.00,0.0,meteohub,2013-05-02 06:11:00,
2013-05-02 02:16:00,55.4,43.0,30.41,SSE,152,0.0,2.0,63,0.00,,,0.00,0.0,meteohub,2013-05-02 06:16:00,
2013-05-02 02:22:00,55.2,42.8,30.41,SSE,161,0.0,1.0,63,0.00,,,0.00,0.0,meteohub,2013-05-02 06:22:00,
2013-05-02 02:27:00,55.0,43.2,30.41,SSW,196,0.0,5.0,64,0.00,,,0.00,0.0,meteohub,2013-05-02 06:27:00,
2013-05-02 02:32:00,54.9,43.0,30.41,SSW,201,0.0,5.0,64,0.00,,,0.00,0.0,meteohub,2013-05-02 06:32:00,
2013-05-02 02:37:00,54.9,43.0,30.41,SSW,200,0.0,5.0,64,0.00,,,0.00,0.0,meteohub,2013-05-02 06:37:00,
2013-05-02 02:42:00,54.7,42.8,30.41,SSW,200,0.0,4.0,64,0.00,,,0.00,0.0,meteohub,2013-05-02 06:42:00,
2013-05-02 02:47:00,54.7,42.8,30.41,SSW,200,0.0,3.0,64,0.00,,,0.00,0.0,meteohub,2013-05-02 06:47:00,
2013-05-02 02:52:00,54.3,42.8,30.41,SSW,200,0.0,1.0,65,0.00,,,0.00,0.0,meteohub,2013-05-02 06:52:00,
2013-05-02 02:57:00,54.3,42.8,30.41,SSW,200,0.0,1.0,65,0.00,,,0.00,0.0,meteohub,2013-05-02 06:57:00,
2013-05-02 03:02:00,54.1,43.0,30.41,SSW,200,0.0,1.0,66,0.00,,,0.00,0.0,meteohub,2013-05-02 07:02:00,
2013-05-02 03:07:00,54.0,42.8,30.41,SSW,200,0.0,1.0,66,0.00,,,0.00,0.0,meteohub,2013-05-02 07:07:00,
2013-05-02 03:12:00,53.8,42.6,30.41,SSW,200,0.0,1.0,66,0.00,,,0.00,0.0,meteohub,2013-05-02 07:12:00,
2013-05-02 03:17:00,53.8,42.6,30.41,SSW,200,0.0,1.0,66,0.00,,,0.00,0.0,meteohub,2013-05-02 07:17:00,
2013-05-02 03:22:00,53.4,42.3,30.41,SSW,200,0.0,0.0,66,0.00,,,0.00,0.0,meteohub,2013-05-02 07:22:00,
2013-05-02 03:27:00,53.2,42.6,30.41,SSW,200,0.0,0.0,67,0.00,,,0.00,0.0,meteohub,2013-05-02 07:27:00,
2013-05-02 03:32:00,53.1,42.4,30.41,SSW,200,0.0,0.0,67,0.00,,,0.00,0.0,meteohub,2013-05-02 07:32:00,
2013-05-02 03:37:00,52.9,42.3,30.41,SSW,200,0.0,0.0,67,0.00,,,0.00,0.0,meteohub,2013-05-02 07:37:00,
2013-05-02 03:42:00,52.5,42.3,30.41,SSW,200,0.0,0.0,68,0.00,,,0.00,0.0,meteohub,2013-05-02 07:42:00,
2013-05-02 03:47:00,52.3,42.4,30.41,SSW,200,0.0,1.0,69,0.00,,,0.00,0.0,meteohub,2013-05-02 07:47:00,
2013-05-02 03:52:00,52.2,42.6,30.41,SSW,200,0.0,1.0,70,0.00,,,0.00,0.0,meteohub,2013-05-02 07:52:00,
2013-05-02 03:57:00,52.0,42.4,30.41,SSW,200,0.0,1.0,70,0.00,,,0.00,0.0,meteohub,2013-05-02 07:57:00,
2013-05-02 04:02:00,51.6,42.4,30.41,SSW,200,0.0,1.0,71,0.00,,,0.00,0.0,meteohub,2013-05-02 08:02:00,
2013-05-02 04:07:00,51.4,42.4,30.41,SSW,200,0.0,0.0,71,0.00,,,0.00,0.0,meteohub,2013-05-02 08:07:00,
2013-05-02 04:12:00,51.3,42.3,30.41,SSW,200,0.0,0.0,71,0.00,,,0.00,0.0,meteohub,2013-05-02 08:12:00,
2013-05-02 04:17:00,51.1,42.4,30.41,SSW,200,0.0,0.0,72,0.00,,,0.00,0.0,meteohub,2013-05-02 08:17:00,
2013-05-02 04:22:00,50.7,42.1,30.41,SSW,200,0.0,0.0,72,0.00,,,0.00,0.0,meteohub,2013-05-02 08:22:00,
2013-05-02 04:27:00,50.5,42.3,30.41,SSW,200,0.0,0.0,73,0.00,,,0.00,0.0,meteohub,2013-05-02 08:27:00,
2013-05-02 04:32:00,50.5,41.9,30.41,SSW,200,0.0,0.0,72,0.00,,,0.00,0.0,meteohub,2013-05-02 08:32:00,
2013-05-02 04:37:00,50.4,42.1,30.41,SSW,200,0.0,0.0,73,0.00,,,0.00,0.0,meteohub,2013-05-02 08:37:00,
2013-05-02 04:42:00,50.2,42.3,30.41,SSW,200,0.0,0.0,74,0.00,,,0.00,0.0,meteohub,2013-05-02 08:42:00,
2013-05-02 04:47:00,49.8,41.9,30.41,SSW,200,0.0,1.0,74,0.00,,,0.00,0.0,meteohub,2013-05-02 08:47:00,
2013-05-02 04:52:00,49.6,42.1,30.41,SSW,200,0.0,1.0,75,0.00,,,0.00,0.0,meteohub,2013-05-02 08:52:00,
2013-05-02 04:57:00,49.6,42.4,30.41,SSW,200,0.0,1.0,76,0.00,,,0.00,0.0,meteohub,2013-05-02 08:57:00,
2013-05-02 05:02:00,49.5,42.3,30.41,SSW,200,0.0,0.0,76,0.00,,,0.00,0.0,meteohub,2013-05-02 09:02:00,
2013-05-02 05:07:00,49.3,42.1,30.42,SSW,200,0.0,0.0,76,0.00,,,0.00,0.0,meteohub,2013-05-02 09:07:00,
2013-05-02 05:12:00,48.9,41.7,30.41,SSW,200,0.0,0.0,76,0.00,,,0.00,0.0,meteohub,2013-05-02 09:12:00,
2013-05-02 05:17:00,48.7,41.5,30.42,SSW,200,0.0,0.0,76,0.00,,,0.00,0.0,meteohub,2013-05-02 09:17:00,
2013-05-02 05:22:00,48.6,41.7,30.42,SSW,200,0.0,0.0,77,0.00,,,0.00,0.0,meteohub,2013-05-02 09:22:00,
2013-05-02 05:27:00,48.4,41.5,30.42,SSW,200,0.0,0.0,77,0.00,,,0.00,0.0,meteohub,2013-05-02 09:27:00,
2013-05-02 05:32:00,48.2,41.4,30.42,SSW,200,0.0,0.0,77,0.00,,,0.00,0.0,meteohub,2013-05-02 09:32:00,
2013-05-02 05:37:00,48.0,41.5,30.42,SSW,200,0.0,0.0,78,0.00,,,0.00,0.0,meteohub,2013-05-02 09:37:00,
2013-05-02 05:42:00,47.8,41.4,30.42,SSW,200,0.0,0.0,78,0.00,,,0.00,0.0,meteohub,2013-05-02 09:42:00,
2013-05-02 05:47:00,47.7,41.2,30.42,SSW,200,0.0,0.0,78,0.00,,,0.00,0.0,meteohub,2013-05-02 09:47:00,
2013-05-02 05:52:00,47.7,41.2,30.42,SSW,200,0.0,0.0,78,0.00,,,0.00,0.0,meteohub,2013-05-02 09:52:00,
2013-05-02 05:57:00,47.5,41.0,30.42,SSW,200,0.0,0.0,78,0.00,,,0.00,5.0,meteohub,2013-05-02 09:57:00,
2013-05-02 06:02:00,47.3,41.2,30.43,SSW,200,0.0,0.0,79,0.00,,,0.00,9.0,meteohub,2013-05-02 10:02:00,
2013-05-02 06:07:00,47.1,41.0,30.43,SSW,200,0.0,0.0,79,0.00,,,0.00,11.0,meteohub,2013-05-02 10:07:00,
2013-05-02 06:12:00,46.9,40.8,30.43,SSW,200,0.0,0.0,79,0.00,,,0.00,12.0,meteohub,2013-05-02 10:12:00,
2013-05-02 06:17:00,46.8,40.6,30.43,SSW,200,0.0,0.0,79,0.00,,,0.00,14.0,meteohub,2013-05-02 10:17:00,
2013-05-02 06:22:00,46.6,40.8,30.43,SSW,200,0.0,0.0,80,0.00,,,0.00,18.0,meteohub,2013-05-02 10:22:00,
2013-05-02 06:27:00,46.6,40.8,30.43,SSW,200,0.0,0.0,80,0.00,,,0.00,19.0,meteohub,2013-05-02 10:27:00,
2013-05-02 06:32:00,46.4,40.6,30.43,SSW,200,0.0,0.0,80,0.00,,,0.00,21.0,meteohub,2013-05-02 10:32:00,
2013-05-02 06:37:00,46.4,40.6,30.43,SSW,200,0.0,0.0,80,0.00,,,0.00,23.0,meteohub,2013-05-02 10:37:00,
2013-05-02 06:42:00,46.4,40.8,30.43,SSW,200,0.0,0.0,81,0.00,,,0.00,23.0,meteohub,2013-05-02 10:42:00,
2013-05-02 06:47:00,46.4,41.2,30.43,SSW,200,0.0,0.0,82,0.00,,,0.00,25.0,meteohub,2013-05-02 10:47:00,
2013-05-02 06:52:00,46.4,41.5,30.44,SSW,201,0.0,0.0,83,0.00,,,0.00,26.0,meteohub,2013-05-02 10:52:00,
2013-05-02 06:57:00,46.4,41.5,30.44,SSW,200,0.0,0.0,83,0.00,,,0.00,28.0,meteohub,2013-05-02 10:57:00,
2013-05-02 07:02:00,46.6,42.1,30.44,SSW,200,0.0,0.0,84,0.00,,,0.00,28.0,meteohub,2013-05-02 11:02:00,
2013-05-02 07:08:00,46.6,42.1,30.44,SSW,200,0.0,0.0,84,0.00,,,0.00,30.0,meteohub,2013-05-02 11:08:00,
2013-05-02 07:13:00,46.8,42.3,30.44,SSW,200,0.0,0.0,84,0.00,,,0.00,32.0,meteohub,2013-05-02 11:13:00,
2013-05-02 07:18:00,46.8,42.4,30.45,SSW,201,0.0,0.0,85,0.00,,,0.00,32.0,meteohub,2013-05-02 11:18:00,
2013-05-02 07:24:00,46.9,42.6,30.45,SSW,200,0.0,0.0,85,0.00,,,0.00,33.0,meteohub,2013-05-02 11:24:00,
2013-05-02 07:29:00,47.1,43.2,30.45,SSW,200,0.0,0.0,86,0.00,,,0.00,35.0,meteohub,2013-05-02 11:29:00,
2013-05-02 07:34:00,47.7,43.7,30.45,SSW,201,0.0,0.0,86,0.00,,,0.00,35.0,meteohub,2013-05-02 11:34:00,
2013-05-02 07:40:00,48.0,44.1,30.45,SSW,200,0.0,1.0,86,0.00,,,0.00,37.0,meteohub,2013-05-02 11:40:00,
2013-05-02 07:45:00,48.4,44.1,30.45,SSW,200,0.0,1.0,85,0.00,,,0.00,37.0,meteohub,2013-05-02 11:45:00,
2013-05-02 07:50:00,48.7,44.1,30.45,SE,133,0.0,1.0,84,0.00,,,0.00,39.0,meteohub,2013-05-02 11:50:00,
2013-05-02 07:56:00,49.5,44.6,30.45,SE,133,0.0,1.0,83,0.00,,,0.00,39.0,meteohub,2013-05-02 11:56:00,
2013-05-02 08:01:00,50.4,45.1,30.45,SE,134,0.0,1.0,82,0.00,,,0.00,40.0,meteohub,2013-05-02 12:01:00,
2013-05-02 08:06:00,51.3,45.3,30.45,ESE,122,0.0,1.0,80,0.00,,,0.00,40.0,meteohub,2013-05-02 12:06:00,
2013-05-02 08:12:00,52.2,45.9,30.45,SE,136,0.0,3.0,79,0.00,,,0.00,42.0,meteohub,2013-05-02 12:12:00,
2013-05-02 08:17:00,52.9,45.5,30.45,SSE,153,0.0,3.0,76,0.00,,,0.00,42.0,meteohub,2013-05-02 12:17:00,
2013-05-02 08:22:00,53.4,45.7,30.45,SW,215,0.0,3.0,75,0.00,,,0.00,44.0,meteohub,2013-05-02 12:22:00,
2013-05-02 08:27:00,54.0,45.9,30.45,East,84,1.0,2.0,74,0.00,,,0.00,44.0,meteohub,2013-05-02 12:27:00,
2013-05-02 08:32:00,54.3,46.2,30.45,SE,138,0.0,2.0,74,0.00,,,0.00,46.0,meteohub,2013-05-02 12:32:00,
2013-05-02 08:37:00,55.0,46.2,30.45,SSW,205,1.0,2.0,72,0.00,,,0.00,47.0,meteohub,2013-05-02 12:37:00,
2013-05-02 08:42:00,55.6,46.4,30.45,SW,224,0.0,3.0,71,0.00,,,0.00,47.0,meteohub,2013-05-02 12:42:00,
2013-05-02 08:48:00,55.8,45.7,30.45,West,261,0.0,4.0,69,0.00,,,0.00,49.0,meteohub,2013-05-02 12:48:00,
2013-05-02 08:53:00,55.9,46.2,30.45,West,261,1.0,4.0,70,0.00,,,0.00,49.0,meteohub,2013-05-02 12:53:00,
2013-05-02 08:58:00,56.5,46.4,30.45,South,180,0.0,4.0,69,0.00,,,0.00,51.0,meteohub,2013-05-02 12:58:00,
2013-05-02 09:04:00,56.8,46.8,30.45,SE,138,0.0,2.0,69,0.00,,,0.00,53.0,meteohub,2013-05-02 13:04:00,
2013-05-02 09:09:00,57.4,46.9,30.45,SE,138,0.0,2.0,68,0.00,,,0.00,91.0,meteohub,2013-05-02 13:09:00,
2013-05-02 09:14:00,57.9,46.6,30.44,SE,138,0.0,2.0,66,0.00,,,0.00,582.0,meteohub,2013-05-02 13:14:00,
2013-05-02 09:20:00,58.8,47.1,30.44,SE,141,1.0,2.0,65,0.00,,,0.00,591.0,meteohub,2013-05-02 13:20:00,
2013-05-02 09:25:00,59.5,46.9,30.44,SE,127,0.0,1.0,63,0.00,,,0.00,466.0,meteohub,2013-05-02 13:25:00,
2013-05-02 09:30:00,60.3,47.7,30.44,ESE,117,1.0,2.0,63,0.00,,,0.00,497.0,meteohub,2013-05-02 13:30:00,
2013-05-02 09:35:00,60.6,46.2,30.44,ESE,116,0.0,3.0,59,0.00,,,0.00,436.0,meteohub,2013-05-02 13:35:00,
2013-05-02 09:41:00,61.0,46.6,30.44,ESE,113,0.0,3.0,59,0.00,,,0.00,362.0,meteohub,2013-05-02 13:41:00,
2013-05-02 09:46:00,61.3,47.3,30.44,ESE,114,1.0,3.0,60,0.00,,,0.00,214.0,meteohub,2013-05-02 13:46:00,
2013-05-02 09:51:00,61.7,46.8,30.44,ESE,113,0.0,3.0,58,0.00,,,0.00,529.0,meteohub,2013-05-02 13:51:00,
2013-05-02 09:57:00,62.2,47.7,30.43,SE,126,0.0,3.0,59,0.00,,,0.00,575.0,meteohub,2013-05-02 13:57:00,
2013-05-02 10:02:00,62.6,47.1,30.43,West,267,0.0,2.0,57,0.00,,,0.00,714.0,meteohub,2013-05-02 14:02:00,
2013-05-02 10:07:00,63.0,46.0,30.43,WSW,252,4.0,4.0,54,0.00,,,0.00,631.0,meteohub,2013-05-02 14:07:00,
2013-05-02 10:12:00,63.0,46.6,30.43,WSW,252,6.0,6.0,55,0.00,,,0.00,283.0,meteohub,2013-05-02 14:12:00,
2013-05-02 10:17:00,63.1,46.8,30.43,SW,214,3.0,6.0,55,0.00,,,0.00,427.0,meteohub,2013-05-02 14:17:00,
2013-05-02 10:22:00,63.7,46.8,30.43,SW,221,2.0,6.0,54,0.00,,,0.00,654.0,meteohub,2013-05-02 14:22:00,
2013-05-02 10:27:00,64.2,46.8,30.43,West,279,0.0,6.0,53,0.00,,,0.00,772.0,meteohub,2013-05-02 14:27:00,
2013-05-02 10:32:00,64.6,47.1,30.43,WSW,248,4.0,5.0,53,0.00,,,0.00,780.0,meteohub,2013-05-02 14:32:00,
2013-05-02 10:37:00,64.9,46.4,30.43,WSW,257,0.0,6.0,51,0.00,,,0.00,793.0,meteohub,2013-05-02 14:37:00,
2013-05-02 10:42:00,65.5,46.9,30.43,SW,228,0.0,6.0,51,0.00,,,0.00,803.0,meteohub,2013-05-02 14:42:00,
2013-05-02 10:47:00,66.4,49.6,30.43,East,99,0.0,6.0,55,0.00,,,0.00,812.0,meteohub,2013-05-02 14:47:00,
2013-05-02 10:52:00,67.5,48.7,30.42,ESE,106,0.0,3.0,51,0.00,,,0.00,821.0,meteohub,2013-05-02 14:52:00,
2013-05-02 10:57:00,67.8,46.2,30.42,ESE,111,0.0,3.0,46,0.00,,,0.00,830.0,meteohub,2013-05-02 14:57:00,
2013-05-02 11:02:00,68.4,48.9,30.42,ESE,115,0.0,3.0,50,0.00,,,0.00,838.0,meteohub,2013-05-02 15:02:00,
2013-05-02 11:07:00,68.9,46.8,30.42,WNW,292,2.0,5.0,45,0.00,,,0.00,849.0,meteohub,2013-05-02 15:07:00,
2013-05-02 11:12:00,69.4,48.9,30.41,South,179,2.0,5.0,48,0.00,,,0.00,856.0,meteohub,2013-05-02 15:12:00,
2013-05-02 11:17:00,69.6,46.8,30.41,South,189,0.0,5.0,44,0.00,,,0.00,865.0,meteohub,2013-05-02 15:17:00,
2013-05-02 11:22:00,70.2,47.3,30.41,WSW,257,1.0,5.0,44,0.00,,,0.00,868.0,meteohub,2013-05-02 15:22:00,
2013-05-02 11:27:00,70.7,45.9,30.41,West,270,5.0,5.0,41,0.00,,,0.00,875.0,meteohub,2013-05-02 15:27:00,
2013-05-02 11:32:00,71.2,45.0,30.41,West,279,0.0,5.0,39,0.00,,,0.00,882.0,meteohub,2013-05-02 15:32:00,
2013-05-02 11:37:00,71.4,45.1,30.40,WNW,293,3.0,5.0,39,0.00,,,0.00,889.0,meteohub,2013-05-02 15:37:00,
2013-05-02 11:42:00,71.8,45.5,30.40,NW,325,1.0,6.0,39,0.00,,,0.00,893.0,meteohub,2013-05-02 15:42:00,
2013-05-02 11:47:00,72.3,46.0,30.40,West,273,1.0,6.0,39,0.00,,,0.00,900.0,meteohub,2013-05-02 15:47:00,
2013-05-02 11:52:00,72.5,44.8,30.40,WNW,284,1.0,6.0,37,0.00,,,0.00,907.0,meteohub,2013-05-02 15:52:00,
2013-05-02 11:57:00,72.9,47.1,30.40,NW,317,0.0,5.0,40,0.00,,,0.00,907.0,meteohub,2013-05-02 15:57:00,
2013-05-02 12:02:00,73.0,45.9,30.40,SSW,206,4.0,5.0,38,0.00,,,0.00,912.0,meteohub,2013-05-02 16:02:00,
2013-05-02 12:07:00,73.2,45.3,30.40,NNE,13,3.0,4.0,37,0.00,,,0.00,914.0,meteohub,2013-05-02 16:07:00,
2013-05-02 12:12:00,73.6,43.5,30.39,West,267,0.0,6.0,34,0.00,,,0.00,919.0,meteohub,2013-05-02 16:12:00,
2013-05-02 12:17:00,73.9,45.3,30.39,North,5,0.0,6.0,36,0.00,,,0.00,921.0,meteohub,2013-05-02 16:17:00,
2013-05-02 12:22:00,74.3,44.1,30.38,SSW,212,3.0,6.0,34,0.00,,,0.00,925.0,meteohub,2013-05-02 16:22:00,
2013-05-02 12:27:00,74.7,41.2,30.38,WNW,288,0.0,6.0,30,0.00,,,0.00,921.0,meteohub,2013-05-02 16:27:00,
2013-05-02 12:32:00,75.0,44.8,30.38,WSW,250,0.0,6.0,34,0.00,,,0.00,925.0,meteohub,2013-05-02 16:32:00,
2013-05-02 12:37:00,75.4,42.6,30.38,West,263,2.0,5.0,31,0.00,,,0.00,923.0,meteohub,2013-05-02 16:37:00,
2013-05-02 12:42:00,75.6,46.0,30.38,ESE,120,3.0,4.0,35,0.00,,,0.00,925.0,meteohub,2013-05-02 16:42:00,
2013-05-02 12:47:00,75.6,48.2,30.38,ESE,121,0.0,4.0,38,0.00,,,0.00,925.0,meteohub,2013-05-02 16:47:00,
2013-05-02 12:52:00,76.3,46.6,30.37,SSW,212,4.0,6.0,35,0.00,,,0.00,925.0,meteohub,2013-05-02 16:52:00,
2013-05-02 12:57:00,76.5,43.5,30.37,NW,304,4.0,6.0,31,0.00,,,0.00,923.0,meteohub,2013-05-02 16:57:00,
2013-05-02 13:02:00,76.8,43.0,30.37,SW,234,5.0,6.0,30,0.00,,,0.00,923.0,meteohub,2013-05-02 17:02:00,
2013-05-02 13:07:00,77.2,45.0,30.37,SSW,199,0.0,6.0,32,0.00,,,0.00,919.0,meteohub,2013-05-02 17:07:00,
2013-05-02 13:12:00,77.2,43.3,30.36,SW,224,1.0,6.0,30,0.00,,,0.00,918.0,meteohub,2013-05-02 17:12:00,
2013-05-02 13:17:00,77.4,42.6,30.36,NNW,340,1.0,6.0,29,0.00,,,0.00,916.0,meteohub,2013-05-02 17:17:00,
2013-05-02 13:22:00,77.5,42.8,30.36,WSW,250,0.0,6.0,29,0.00,,,0.00,914.0,meteohub,2013-05-02 17:22:00,
2013-05-02 13:27:00,78.1,43.2,30.36,West,265,4.0,7.0,29,0.00,,,0.00,909.0,meteohub,2013-05-02 17:27:00,
2013-05-02 13:32:00,78.3,45.1,30.35,West,275,2.0,9.0,31,0.00,,,0.00,905.0,meteohub,2013-05-02 17:32:00,
2013-05-02 13:37:00,79.0,45.0,30.35,ENE,64,0.0,9.0,30,0.00,,,0.00,904.0,meteohub,2013-05-02 17:37:00,
2013-05-02 13:42:00,79.3,42.4,30.35,NE,44,1.0,9.0,27,0.00,,,0.00,898.0,meteohub,2013-05-02 17:42:00,
2013-05-02 13:47:00,79.5,42.6,30.35,WNW,290,0.0,7.0,27,0.00,,,0.00,867.0,meteohub,2013-05-02 17:47:00,
2013-05-02 13:52:00,79.5,42.6,30.35,SW,236,3.0,7.0,27,0.00,,,0.00,867.0,meteohub,2013-05-02 17:52:00,
2013-05-02 13:58:00,79.3,45.1,30.35,NE,42,0.0,7.0,30,0.00,,,0.00,888.0,meteohub,2013-05-02 17:58:00,
2013-05-02 14:03:00,79.5,43.5,30.35,WNW,303,1.0,7.0,28,0.00,,,0.00,879.0,meteohub,2013-05-02 18:03:00,
2013-05-02 14:08:00,79.7,43.7,30.34,NW,317,1.0,5.0,28,0.00,,,0.00,870.0,meteohub,2013-05-02 18:08:00,
2013-05-02 14:14:00,79.9,43.9,30.34,WNW,287,1.0,7.0,28,0.00,,,0.00,863.0,meteohub,2013-05-02 18:14:00,
2013-05-02 14:19:00,80.2,46.0,30.33,SSW,213,0.0,7.0,30,0.00,,,0.00,854.0,meteohub,2013-05-02 18:19:00,
2013-05-02 14:24:00,80.4,45.3,30.33,West,263,2.0,7.0,29,0.00,,,0.00,842.0,meteohub,2013-05-02 18:24:00,
2013-05-02 14:29:00,80.8,45.5,30.33,NNW,331,2.0,8.0,29,0.00,,,0.00,824.0,meteohub,2013-05-02 18:29:00,
2013-05-02 14:35:00,80.8,44.6,30.32,WSW,244,1.0,8.0,28,0.00,,,0.00,821.0,meteohub,2013-05-02 18:35:00,
2013-05-02 14:40:00,80.8,44.6,30.32,SE,143,2.0,6.0,28,0.00,,,0.00,826.0,meteohub,2013-05-02 18:40:00,
2013-05-02 14:45:00,80.6,45.3,30.32,East,85,3.0,6.0,29,0.00,,,0.00,786.0,meteohub,2013-05-02 18:45:00,
2013-05-02 14:51:00,80.6,48.9,30.32,ESE,106,5.0,9.0,33,0.00,,,0.00,798.0,meteohub,2013-05-02 18:51:00,
2013-05-02 14:56:00,81.0,46.6,30.32,SSW,206,0.0,9.0,30,0.00,,,0.00,796.0,meteohub,2013-05-02 18:56:00,
2013-05-02 15:01:00,81.5,47.1,30.32,ESE,105,3.0,9.0,30,0.00,,,0.00,784.0,meteohub,2013-05-02 19:01:00,
2013-05-02 15:06:00,81.9,44.6,30.31,West,273,2.0,6.0,27,0.00,,,0.00,772.0,meteohub,2013-05-02 19:06:00,
2013-05-02 15:12:00,82.0,47.5,30.31,WSW,252,4.0,7.0,30,0.00,,,0.00,747.0,meteohub,2013-05-02 19:12:00,
2013-05-02 15:17:00,82.2,45.0,30.31,West,261,5.0,7.0,27,0.00,,,0.00,761.0,meteohub,2013-05-02 19:17:00,
2013-05-02 15:22:00,82.2,43.0,30.31,WNW,292,4.0,8.0,25,0.00,,,0.00,754.0,meteohub,2013-05-02 19:22:00,
2013-05-02 15:27:00,82.0,43.7,30.31,WNW,288,4.0,8.0,26,0.00,,,0.00,744.0,meteohub,2013-05-02 19:27:00,
2013-05-02 15:32:00,82.0,44.8,30.31,WNW,292,5.0,8.0,27,0.00,,,0.00,701.0,meteohub,2013-05-02 19:32:00,
2013-05-02 15:37:00,82.0,43.7,30.30,WSW,253,2.0,7.0,26,0.00,,,0.00,682.0,meteohub,2013-05-02 19:37:00,
2013-05-02 15:42:00,82.2,45.9,30.30,West,277,4.0,7.0,28,0.00,,,0.00,675.0,meteohub,2013-05-02 19:42:00,
2013-05-02 15:47:00,82.0,47.5,30.30,NNW,338,3.0,7.0,30,0.00,,,0.00,657.0,meteohub,2013-05-02 19:47:00,
2013-05-02 15:52:00,82.2,46.8,30.30,NNE,28,0.0,7.0,29,0.00,,,0.00,631.0,meteohub,2013-05-02 19:52:00,
2013-05-02 15:57:00,82.2,47.7,30.29,ENE,65,3.0,7.0,30,0.00,,,0.00,642.0,meteohub,2013-05-02 19:57:00,
2013-05-02 16:03:00,82.2,43.9,30.29,East,96,5.0,6.0,26,0.00,,,0.00,596.0,meteohub,2013-05-02 20:03:00,
2013-05-02 16:08:00,82.0,46.6,30.28,West,260,1.0,6.0,29,0.00,,,0.00,608.0,meteohub,2013-05-02 20:08:00,
2013-05-02 16:13:00,82.2,45.0,30.28,ENE,73,2.0,5.0,27,0.00,,,0.00,589.0,meteohub,2013-05-02 20:13:00,
2013-05-02 16:19:00,82.2,47.7,30.28,East,101,0.0,5.0,30,0.00,,,0.00,571.0,meteohub,2013-05-02 20:19:00,
2013-05-02 16:24:00,82.4,45.1,30.28,WSW,246,0.0,5.0,27,0.00,,,0.00,563.0,meteohub,2013-05-02 20:24:00,
2013-05-02 16:29:00,82.8,45.3,30.27,WSW,253,4.0,5.0,27,0.00,,,0.00,552.0,meteohub,2013-05-02 20:29:00,
2013-05-02 16:34:00,82.8,47.3,30.27,WSW,246,0.0,6.0,29,0.00,,,0.00,531.0,meteohub,2013-05-02 20:34:00,
2013-05-02 16:40:00,82.8,47.3,30.27,North,0,2.0,6.0,29,0.00,,,0.00,522.0,meteohub,2013-05-02 20:40:00,
2013-05-02 16:45:00,82.6,43.2,30.27,North,0,0.0,6.0,25,0.00,,,0.00,510.0,meteohub,2013-05-02 20:45:00,
2013-05-02 16:50:00,82.8,47.3,30.27,SW,236,0.0,4.0,29,0.00,,,0.00,503.0,meteohub,2013-05-02 20:50:00,
2013-05-02 16:56:00,82.8,45.3,30.27,WSW,246,5.0,5.0,27,0.00,,,0.00,492.0,meteohub,2013-05-02 20:56:00,
2013-05-02 17:01:00,82.8,46.4,30.27,SW,234,1.0,5.0,28,0.00,,,0.00,473.0,meteohub,2013-05-02 21:01:00,
2013-05-02 17:06:00,82.9,47.5,30.27,SE,134,1.0,5.0,29,0.00,,,0.00,454.0,meteohub,2013-05-02 21:06:00,
2013-05-02 17:11:00,82.8,44.4,30.27,WSW,247,1.0,5.0,26,0.00,,,0.00,425.0,meteohub,2013-05-02 21:11:00,
2013-05-02 17:17:00,82.9,43.5,30.27,West,273,1.0,4.0,25,0.00,,,0.00,415.0,meteohub,2013-05-02 21:17:00,
2013-05-02 17:22:00,83.3,45.9,30.26,WNW,298,0.0,5.0,27,0.00,,,0.00,401.0,meteohub,2013-05-02 21:22:00,
2013-05-02 17:27:00,83.5,43.0,30.26,WNW,288,5.0,5.0,24,0.00,,,0.00,378.0,meteohub,2013-05-02 21:27:00,
2013-05-02 17:32:00,83.5,48.7,30.26,West,275,0.0,5.0,30,0.00,,,0.00,364.0,meteohub,2013-05-02 21:32:00,
2013-05-02 17:37:00,83.3,46.8,30.26,East,91,0.0,5.0,28,0.00,,,0.00,350.0,meteohub,2013-05-02 21:37:00,
2013-05-02 17:42:00,83.1,45.7,30.25,WSW,252,0.0,5.0,27,0.00,,,0.00,327.0,meteohub,2013-05-02 21:42:00,
2013-05-02 17:47:00,83.1,46.6,30.25,WSW,241,0.0,3.0,28,0.00,,,0.00,316.0,meteohub,2013-05-02 21:47:00,
2013-05-02 17:52:00,82.9,46.4,30.25,East,97,2.0,4.0,28,0.00,,,0.00,302.0,meteohub,2013-05-02 21:52:00,
2013-05-02 17:58:00,82.8,47.3,30.26,East,90,1.0,4.0,29,0.00,,,0.00,287.0,meteohub,2013-05-02 21:58:00,
2013-05-02 18:03:00,82.4,46.0,30.25,NNE,25,2.0,4.0,28,0.00,,,0.00,267.0,meteohub,2013-05-02 22:03:00,
2013-05-02 18:08:00,82.4,41.9,30.25,NNE,28,0.0,4.0,24,0.00,,,0.00,255.0,meteohub,2013-05-02 22:08:00,
2013-05-02 18:13:00,82.2,43.9,30.25,NNE,24,0.0,4.0,26,0.00,,,0.00,237.0,meteohub,2013-05-02 22:13:00,
2013-05-02 18:19:00,82.4,46.0,30.25,NNE,24,0.0,4.0,28,0.00,,,0.00,144.0,meteohub,2013-05-02 22:19:00,
2013-05-02 18:24:00,82.6,46.2,30.25,NNE,24,0.0,1.0,28,0.00,,,0.00,162.0,meteohub,2013-05-02 22:24:00,
2013-05-02 18:29:00,82.0,45.7,30.25,ESE,123,0.0,1.0,28,0.00,,,0.00,186.0,meteohub,2013-05-02 22:29:00,
2013-05-02 18:35:00,81.5,45.3,30.25,SW,218,0.0,3.0,28,0.00,,,0.00,165.0,meteohub,2013-05-02 22:35:00,
2013-05-02 18:40:00,81.3,45.1,30.25,SW,220,0.0,3.0,28,0.00,,,0.00,141.0,meteohub,2013-05-02 22:40:00,
2013-05-02 18:45:00,81.5,48.0,30.24,SW,220,0.0,3.0,31,0.00,,,0.00,121.0,meteohub,2013-05-02 22:45:00,
2013-05-02 18:51:00,81.7,48.0,30.25,SW,220,0.0,2.0,31,0.00,,,0.00,105.0,meteohub,2013-05-02 22:51:00,
2013-05-02 18:56:00,81.7,44.4,30.25,SW,220,0.0,1.0,27,0.00,,,0.00,74.0,meteohub,2013-05-02 22:56:00,
2013-05-02 19:01:00,81.3,49.5,30.24,SW,220,0.0,1.0,33,0.00,,,0.00,70.0,meteohub,2013-05-02 23:01:00,
2013-05-02 19:06:00,81.0,49.1,30.25,SW,220,0.0,1.0,33,0.00,,,0.00,40.0,meteohub,2013-05-02 23:06:00,
2013-05-02 19:12:00,80.4,49.5,30.25,SW,220,0.0,1.0,34,0.00,,,0.00,42.0,meteohub,2013-05-02 23:12:00,
2013-05-02 19:17:00,80.1,50.0,30.25,SW,220,0.0,2.0,35,0.00,,,0.00,33.0,meteohub,2013-05-02 23:17:00,
2013-05-02 19:22:00,79.9,48.2,30.24,SW,220,0.0,2.0,33,0.00,,,0.00,28.0,meteohub,2013-05-02 23:22:00,
2013-05-02 19:27:00,79.3,53.6,30.25,SW,220,0.0,2.0,41,0.00,,,0.00,26.0,meteohub,2013-05-02 23:27:00,
2013-05-02 19:32:00,78.6,53.6,30.24,SW,220,0.0,0.0,42,0.00,,,0.00,23.0,meteohub,2013-05-02 23:32:00,
2013-05-02 19:38:00,78.1,53.8,30.24,SW,220,0.0,0.0,43,0.00,,,0.00,14.0,meteohub,2013-05-02 23:38:00,
2013-05-02 19:43:00,77.4,51.8,30.24,SW,220,0.0,0.0,41,0.00,,,0.00,11.0,meteohub,2013-05-02 23:43:00,
2013-05-02 19:48:00,76.8,51.3,30.24,SW,220,0.0,0.0,41,0.00,,,0.00,7.0,meteohub,2013-05-02 23:48:00,
2013-05-02 19:53:00,76.5,49.6,30.24,SW,220,0.0,0.0,39,0.00,,,0.00,0.0,meteohub,2013-05-02 23:53:00,
2013-05-02 19:59:00,76.1,51.3,30.24,SW,220,0.0,0.0,42,0.00,,,0.00,0.0,meteohub,2013-05-02 23:59:00,
2013-05-02 20:04:00,75.7,50.4,30.24,SW,220,0.0,0.0,41,0.00,,,0.00,0.0,meteohub,2013-05-03 00:04:00,
2013-05-02 20:09:00,75.4,52.0,30.24,SW,220,0.0,0.0,44,0.00,,,0.00,0.0,meteohub,2013-05-03 00:09:00,
2013-05-02 20:15:00,74.8,53.2,30.24,SW,220,0.0,0.0,47,0.00,,,0.00,0.0,meteohub,2013-05-03 00:15:00,
2013-05-02 20:20:00,74.1,53.8,30.24,SW,220,0.0,0.0,49,0.00,,,0.00,0.0,meteohub,2013-05-03 00:20:00,
2013-05-02 20:25:00,73.6,54.3,30.24,SW,220,0.0,0.0,51,0.00,,,0.00,0.0,meteohub,2013-05-03 00:25:00,
2013-05-02 20:30:00,72.9,53.6,30.24,SW,220,0.0,0.0,51,0.00,,,0.00,0.0,meteohub,2013-05-03 00:30:00,
2013-05-02 20:36:00,72.5,53.4,30.24,SW,220,0.0,0.0,51,0.00,,,0.00,0.0,meteohub,2013-05-03 00:36:00,
2013-05-02 20:41:00,72.1,54.5,30.24,SW,220,0.0,0.0,54,0.00,,,0.00,0.0,meteohub,2013-05-03 00:41:00,
2013-05-02 20:46:00,71.4,52.9,30.25,SW,220,0.0,0.0,52,0.00,,,0.00,0.0,meteohub,2013-05-03 00:46:00,
2013-05-02 20:52:00,71.2,54.7,30.25,SW,220,0.0,0.0,56,0.00,,,0.00,0.0,meteohub,2013-05-03 00:52:00,
2013-05-02 20:57:00,70.9,54.3,30.25,SW,220,0.0,0.0,56,0.00,,,0.00,0.0,meteohub,2013-05-03 00:57:00,
2013-05-02 21:02:00,70.3,52.3,30.25,ESE,108,4.0,4.0,53,0.00,,,0.00,0.0,meteohub,2013-05-03 01:02:00,
2013-05-02 21:07:00,69.4,48.9,30.26,ESE,105,5.0,9.0,48,0.00,,,0.00,0.0,meteohub,2013-05-03 01:07:00,
2013-05-02 21:12:00,69.4,48.9,30.27,ESE,102,3.0,11.0,48,0.00,,,0.00,0.0,meteohub,2013-05-03 01:12:00,
2013-05-02 21:17:00,70.0,48.2,30.27,SSE,158,1.0,11.0,46,0.00,,,0.00,0.0,meteohub,2013-05-03 01:17:00,
2013-05-02 21:22:00,70.2,47.3,30.27,ESE,105,7.0,11.0,44,0.00,,,0.00,0.0,meteohub,2013-05-03 01:22:00,
2013-05-02 21:27:00,70.5,46.9,30.27,ESE,117,2.0,11.0,43,0.00,,,0.00,0.0,meteohub,2013-05-03 01:27:00,
2013-05-02 21:32:00,70.5,46.9,30.28,SE,137,2.0,11.0,43,0.00,,,0.00,0.0,meteohub,2013-05-03 01:32:00,
2013-05-02 21:37:00,70.5,46.4,30.28,ESE,107,5.0,11.0,42,0.00,,,0.00,0.0,meteohub,2013-05-03 01:37:00,
2013-05-02 21:42:00,70.3,46.2,30.29,East,82,4.0,9.0,42,0.00,,,0.00,0.0,meteohub,2013-05-03 01:42:00,
2013-05-02 21:47:00,70.2,46.6,30.29,ESE,112,7.0,11.0,43,0.00,,,0.00,0.0,meteohub,2013-05-03 01:47:00,
2013-05-02 21:52:00,69.6,45.5,30.30,SE,136,7.0,11.0,42,0.00,,,0.00,0.0,meteohub,2013-05-03 01:52:00,
2013-05-02 21:57:00,69.3,45.1,30.30,ESE,108,2.0,11.0,42,0.00,,,0.00,0.0,meteohub,2013-05-03 01:57:00,
2013-05-02 22:02:00,68.9,45.5,30.30,ESE,108,6.0,11.0,43,0.00,,,0.00,0.0,meteohub,2013-05-03 02:02:00,
2013-05-02 22:07:00,68.5,45.1,30.30,SE,135,3.0,11.0,43,0.00,,,0.00,0.0,meteohub,2013-05-03 02:07:00,
2013-05-02 22:12:00,68.2,44.8,30.30,SE,136,4.0,11.0,43,0.00,,,0.00,0.0,meteohub,2013-05-03 02:12:00,
2013-05-02 22:17:00,68.0,44.6,30.31,ESE,121,7.0,11.0,43,0.00,,,0.00,0.0,meteohub,2013-05-03 02:17:00,
2013-05-02 22:22:00,67.8,45.1,30.31,SSE,166,3.0,13.0,44,0.00,,,0.00,0.0,meteohub,2013-05-03 02:22:00,
2013-05-02 22:27:00,67.6,45.0,30.31,SSE,158,2.0,13.0,44,0.00,,,0.00,0.0,meteohub,2013-05-03 02:27:00,
2013-05-02 22:32:00,67.5,44.8,30.31,SE,135,0.0,13.0,44,0.00,,,0.00,0.0,meteohub,2013-05-03 02:32:00,
2013-05-02 22:37:00,67.3,44.1,30.32,SSE,161,1.0,9.0,43,0.00,,,0.00,0.0,meteohub,2013-05-03 02:37:00,
2013-05-02 22:42:00,67.1,43.9,30.32,SE,133,1.0,9.0,43,0.00,,,0.00,0.0,meteohub,2013-05-03 02:42:00,
2013-05-02 22:47:00,66.9,43.2,30.32,SSE,163,3.0,9.0,42,0.00,,,0.00,0.0,meteohub,2013-05-03 02:47:00,
2013-05-02 22:52:00,66.7,43.5,30.32,ESE,119,0.0,9.0,43,0.00,,,0.00,0.0,meteohub,2013-05-03 02:52:00,
2013-05-02 22:57:00,66.7,43.5,30.33,WNW,285,0.0,4.0,43,0.00,,,0.00,0.0,meteohub,2013-05-03 02:57:00,
2013-05-02 23:02:00,66.6,42.8,30.33,ESE,106,1.0,4.0,42,0.00,,,0.00,0.0,meteohub,2013-05-03 03:02:00,
2013-05-02 23:07:00,66.4,43.2,30.33,SE,130,0.0,5.0,43,0.00,,,0.00,0.0,meteohub,2013-05-03 03:07:00,
2013-05-02 23:12:00,66.0,42.8,30.33,South,180,1.0,5.0,43,0.00,,,0.00,0.0,meteohub,2013-05-03 03:12:00,
2013-05-02 23:17:00,65.8,43.3,30.34,South,186,0.0,5.0,44,0.00,,,0.00,0.0,meteohub,2013-05-03 03:17:00,
2013-05-02 23:22:00,65.7,41.9,30.34,South,173,1.0,4.0,42,0.00,,,0.00,0.0,meteohub,2013-05-03 03:22:00,
2013-05-02 23:27:00,65.3,42.3,30.35,South,189,0.0,4.0,43,0.00,,,0.00,0.0,meteohub,2013-05-03 03:27:00,
2013-05-02 23:32:00,64.9,41.9,30.35,SSW,212,2.0,4.0,43,0.00,,,0.00,0.0,meteohub,2013-05-03 03:32:00,
2013-05-02 23:37:00,64.8,41.7,30.35,SSW,205,0.0,10.0,43,0.00,,,0.00,0.0,meteohub,2013-05-03 03:37:00,
2013-05-02 23:42:00,64.4,42.1,30.36,SW,223,1.0,10.0,44,0.00,,,0.00,0.0,meteohub,2013-05-03 03:42:00,
2013-05-02 23:47:00,64.2,41.9,30.36,South,172,3.0,10.0,44,0.00,,,0.00,0.0,meteohub,2013-05-03 03:47:00,
2013-05-02 23:52:00,63.9,42.1,30.36,SW,215,0.0,7.0,45,0.00,,,0.00,0.0,meteohub,2013-05-03 03:52:00,
2013-05-02 23:57:00,63.7,41.4,30.36,SSW,205,4.0,5.0,44,0.00,,,0.00,0.0,meteohub,2013-05-03 03:57:00,